Simultaneous Nadir Overpasses (SNOs) Predictions

Prediction of SNOs between METOP-B and TERRA Satellite Orbit:

Table of predicted SNOs for the next 14.0 days since TLE Epoch: 9/1/2018
Index Date (METOP-B) Time (METOP-B) Lat,Lon (METOP-B) SZA (METOP-B ) Date (TERRA) Time (TERRA) Lat,Lon (TERRA) SZA (TERRA ) Distance(km) Time Diff (sec)
1 09/02/2018 21:37:58 -81.36, 83.93 103.37 09/02/2018 21:38:13 -81.37, 83.85 103.37 1.25 15
2 09/02/2018 22:28:38 81.37,-108.55 76.67 09/02/2018 22:27:40 81.36,-108.72 76.62 3.00 58
3 09/05/2018 17:12:17 -81.36, 150.46 102.30 09/05/2018 17:12:27 -81.37, 150.37 102.30 1.63 10
4 09/05/2018 18:02:57 81.37, -42.06 77.74 09/05/2018 18:01:54 81.36, -42.22 77.68 2.82 63
5 09/08/2018 12:46:37 -81.36,-143.41 101.26 09/08/2018 12:46:42 -81.35,-143.53 101.28 2.24 5
6 09/08/2018 13:37:16 81.37, 24.42 78.82 09/08/2018 13:36:08 81.36, 24.24 78.76 3.16 68
7 09/11/2018 07:30:15 81.36, 115.25 79.77 09/11/2018 07:31:28 81.36, 115.37 79.81 2.03 73
8 09/11/2018 08:20:55 -81.36, -76.89 100.16 09/11/2018 08:20:55 -81.35, -77.08 100.19 3.29 0
9 09/11/2018 09:11:34 81.37, 90.90 79.91 09/11/2018 09:10:20 81.38, 91.05 79.90 2.83 74
10 09/14/2018 03:04:34 81.36,-178.29 80.87 09/14/2018 03:05:42 81.36,-178.24 80.90 0.81 68




NCC Satellite Simultaneous Nadir Overpasses (SNOs) Prediction Service
